Location: Newark
(48.1500°N, 2.9667°W)
Time: 02:06:53
(UTC+00:00)

Altair - Pass Details

Date: 01 February 2020
Orbit: 1502 x 1682 km, 47.2° (Epoch: 19 February)

Event Time Altitude Azimuth Distance (km) Brightness Sun altitude
Rises 08:56:31 0° 257° (WSW) 4,871 9.8 9.8°
Reaches altitude 10° 08:59:37 10° 257° (WSW) 3,902 9.3 10.2°
Maximum altitude 09:09:43 84° 171° (S) 1,692 8.1 11.5°
Drops below altitude 10° 09:19:55 10° 86° (E) 3,942 10.4 12.7°
Sets 09:23:04 0° 86° (E) 4,922 10.8 13.1°
